Date String (YYYY-MM-DD hh:mm:ss) UTC,Instrument flags,absolute air pressure of the measurement (hPa),sample flow rate (lpm),inlet stack bypass flow (lpm),air temperature of the measurement (°C),ambient temperature measured by the external sensor (°C),aerosol sample conditioner tube jacket temperature (°C),OPC LED temperature (°C),internal box temperature (°C),relative humidity of the measurement (%),span deviation,mass concentration of particles derived from Lorenz-Mie calculation of OPC scattering (μg/m³),mass concentration of particles derived from Lorenz-Mie calculation of OPC scattering (μg/m³),mass concentration of particles derived from Lorenz-Mie calculation of OPC scattering (μg/m³)
DateTimeUTC,F1_M11,P_M11,Q1_M11,Q2_M11,T1_M11,T2_M11,T3_M11,T4_M11,T5_M11,U1_M11,ZSPAN_M11,X0_M11,X2_M11,X1_M11
2024-01-09 05:00:00,SystemResetWarning,0824.5,4.99,000.00,018.9,018.8,000.0,027.1,020.6,5.9,0000.0,0001.98,0001.13,0000.81
2024-01-09 05:01:00,SystemResetWarning,0824.4,4.99,000.00,018.9,018.7,000.0,027.1,020.3,5.9,0000.0,0002.01,0001.14,0000.81
2024-01-09 05:02:00,SystemResetWarning,0824.4,5.01,000.00,018.9,018.6,000.0,027.1,020.2,5.9,0000.0,0002.06,0001.18,0000.82
2024-01-09 05:03:00,SystemResetWarning,0824.4,5.00,000.00,018.9,018.5,000.0,027.1,020.0,5.9,0000.0,0002.08,0001.19,0000.83
2024-01-09 05:04:00,SystemResetWarning,0824.4,4.99,000.00,018.9,018.4,000.0,027.1,020.0,5.9,0000.0,0002.25,0001.23,0000.84
2024-01-09 05:05:00,SystemResetWarning,0824.4,5.00,000.00,018.8,018.3,000.0,027.1,020.0,5.9,0000.0,0002.33,0001.27,0000.86
2024-01-09 05:06:00,SystemResetWarning,0824.4,5.00,000.00,018.8,018.2,000.0,027.2,020.0,6.0,0000.0,0002.43,0001.33,0000.89
2024-01-09 05:07:00,SystemResetWarning,0824.5,5.00,000.00,018.8,018.1,000.0,027.2,020.0,6.0,0000.0,0002.57,0001.39,0000.91
2024-01-09 05:08:00,SystemResetWarning,0824.4,5.00,000.00,018.8,018.0,000.0,027.2,020.0,6.0,0000.0,0002.56,0001.40,0000.93
2024-01-09 05:09:00,SystemResetWarning,0824.4,5.00,000.00,018.8,018.0,000.0,027.2,020.0,6.0,0000.0,0002.49,0001.38,0000.94
2024-01-09 05:10:00,SystemResetWarning,0824.4,5.00,000.00,018.8,017.9,000.0,027.2,020.0,6.0,0000.0,0002.30,0001.30,0000.94
2024-01-09 05:11:00,SystemResetWarning,0824.4,5.00,000.00,018.8,017.8,000.0,027.2,020.0,6.0,0000.0,0002.08,0001.28,0000.96
2024-01-09 05:12:00,SystemResetWarning,0824.4,5.00,000.00,018.8,017.8,000.0,027.2,020.0,5.9,0000.0,0001.96,0001.28,0000.97
2024-01-09 05:13:00,SystemResetWarning,0824.4,5.00,000.00,018.8,017.8,000.0,027.2,020.0,5.9,0000.0,0001.99,0001.28,0000.97
2024-01-09 05:14:00,SystemResetWarning,0824.4,5.01,000.00,018.7,017.8,000.0,027.2,020.0,5.9,0000.0,0002.02,0001.30,0000.98
2024-01-09 05:15:00,SystemResetWarning,0824.4,5.00,000.00,018.7,017.7,000.0,027.2,020.0,5.9,0000.0,0001.97,0001.30,0000.97
2024-01-09 05:16:00,SystemResetWarning,0824.4,5.00,000.00,018.7,017.7,000.0,027.2,020.0,5.8,0000.0,0001.89,0001.26,0000.95
2024-01-09 05:17:00,SystemResetWarning,0824.4,5.00,000.00,018.7,017.6,000.0,027.2,020.0,5.8,0000.0,0001.85,0001.23,0000.93
2024-01-09 05:18:00,SystemResetWarning,0824.4,4.99,000.00,018.7,017.6,000.0,027.2,020.0,5.8,0000.0,0001.66,0001.15,0000.91
2024-01-09 05:19:00,SystemResetWarning,0824.4,5.00,000.00,018.7,017.6,000.0,027.2,020.0,5.8,0000.0,0001.63,0001.14,0000.91
2024-01-09 05:20:00,SystemResetWarning,0824.4,5.01,000.00,018.7,017.5,000.0,027.2,020.0,5.8,0000.0,0001.64,0001.14,0000.90
2024-01-09 05:21:00,SystemResetWarning,0824.4,5.00,000.00,018.7,017.5,000.0,027.2,020.0,5.9,0000.0,0001.67,0001.16,0000.90
2024-01-09 05:22:00,SystemResetWarning,0824.3,4.99,000.00,018.7,017.4,000.0,027.2,020.1,6.0,0000.0,0001.77,0001.20,0000.90
2024-01-09 05:23:00,SystemResetWarning,0824.3,5.00,000.00,018.7,017.8,000.0,027.2,020.4,5.9,0000.0,0001.85,0001.22,0000.90
2024-01-09 05:24:00,SystemResetWarning,0824.3,5.01,000.00,018.9,018.6,000.0,027.2,020.7,5.8,0000.0,0001.75,0001.17,0000.90
2024-01-09 05:25:00,SystemResetWarning,0824.4,4.99,000.00,018.9,018.7,000.0,027.2,020.5,5.8,0000.0,0001.79,0001.16,0000.90
2024-01-09 05:26:00,SystemResetWarning,0824.3,4.99,000.00,018.9,018.7,000.0,027.2,020.2,5.9,0000.0,0001.94,0001.17,0000.91
2024-01-09 05:27:00,SystemResetWarning,0824.3,4.99,000.00,018.9,018.5,000.0,027.2,020.1,5.9,0000.0,0001.92,0001.17,0000.92
2024-01-09 05:28:00,SystemResetWarning,0824.3,5.00,000.00,018.9,018.4,000.0,027.2,020.0,5.8,0000.0,0001.92,0001.17,0000.93
2024-01-09 05:29:00,SystemResetWarning,0824.2,5.00,000.00,018.8,018.2,000.0,027.2,020.0,5.8,0000.0,0001.93,0001.18,0000.93
2024-01-09 05:30:00,SystemResetWarning,0824.3,5.00,000.00,018.8,018.1,000.0,027.2,020.0,5.9,0000.0,0001.94,0001.18,0000.93
2024-01-09 05:31:00,SystemResetWarning,0824.1,5.00,000.00,018.8,018.0,000.0,027.2,020.0,5.9,0000.0,0001.94,0001.17,0000.92
2024-01-09 05:32:00,SystemResetWarning,0824.2,5.00,000.00,018.8,017.9,000.0,027.2,020.0,5.9,0000.0,0001.90,0001.16,0000.92
2024-01-09 05:33:00,SystemResetWarning,0824.1,4.99,000.00,018.8,017.8,000.0,027.2,020.0,5.8,0000.0,0001.92,0001.13,0000.91
2024-01-09 05:34:00,SystemResetWarning,0824.1,5.00,000.00,018.8,017.7,000.0,027.2,020.0,5.9,0000.0,0001.97,0001.13,0000.90
2024-01-09 05:35:00,SystemResetWarning,0824.2,5.00,000.00,018.7,017.7,000.0,027.2,020.0,6.1,0000.0,0002.02,0001.15,0000.90
2024-01-09 05:36:00,SystemResetWarning,0824.1,5.00,000.00,018.7,017.6,000.0,027.2,020.0,6.1,0000.0,0002.00,0001.15,0000.90
2024-01-09 05:37:00,SystemResetWarning,0824.0,5.00,000.00,018.7,017.5,000.0,027.2,020.0,6.1,0000.0,0001.86,0001.12,0000.89
2024-01-09 05:38:00,SystemResetWarning,0824.0,5.00,000.00,018.7,017.4,000.0,027.2,020.0,6.1,0000.0,0002.68,0001.08,0000.87
2024-01-09 05:39:00,SystemResetWarning,0824.0,5.01,000.00,018.7,017.4,000.0,027.3,020.0,6.1,0000.0,0002.77,0001.09,0000.87
2024-01-09 05:40:00,SystemResetWarning,0824.0,5.00,000.00,018.7,017.3,000.0,027.3,020.0,6.1,0000.0,0002.80,0001.11,0000.86
2024-01-09 05:41:00,SystemResetWarning,0824.0,5.00,000.00,018.7,017.4,000.0,027.2,020.1,6.1,0000.0,0002.78,0001.10,0000.85
2024-01-09 05:42:00,SystemResetWarning,0824.0,5.01,000.00,018.8,018.0,000.0,027.2,020.5,6.1,0000.0,0002.86,0001.13,0000.85
2024-01-09 05:43:00,SystemResetWarning,0824.0,5.00,000.00,018.9,018.7,000.0,027.2,020.7,6.1,0000.0,0003.09,0001.19,0000.85
2024-01-09 05:44:00,SystemResetWarning,0824.0,5.00,000.00,019.0,018.7,000.0,027.2,020.4,6.1,0000.0,0003.53,0001.27,0000.85
2024-01-09 05:45:00,SystemResetWarning,0824.0,4.99,000.00,018.9,018.6,000.0,027.2,020.2,6.1,0000.0,0003.55,0001.28,0000.85
2024-01-09 05:46:00,SystemResetWarning,0824.0,5.00,000.00,018.9,018.4,000.0,027.2,020.0,6.2,0000.0,0003.81,0001.26,0000.85
2024-01-09 05:47:00,SystemResetWarning,0823.9,5.01,000.00,018.9,018.2,000.0,027.2,020.0,6.1,0000.0,0003.89,0001.30,0000.86
2024-01-09 05:48:00,SystemResetWarning,0823.9,5.01,000.00,018.8,018.0,000.0,027.2,020.0,6.1,0000.0,0003.91,0001.29,0000.86
2024-01-09 05:49:00,SystemResetWarning,0823.9,5.00,000.00,018.8,017.9,000.0,027.2,020.0,6.1,0000.0,0003.27,0001.28,0000.85
2024-01-09 05:50:00,SystemResetWarning,0823.9,5.00,000.00,018.8,017.7,000.0,027.2,020.0,6.2,0000.0,0003.00,0001.28,0000.85
2024-01-09 05:51:00,SystemResetWarning,0823.9,5.00,000.00,018.8,017.6,000.0,027.2,020.0,6.2,0000.0,0002.95,0001.26,0000.85
2024-01-09 05:52:00,SystemResetWarning,0823.9,4.99,000.00,018.8,017.5,000.0,027.2,020.0,6.1,0000.0,0002.88,0001.23,0000.84
2024-01-09 05:53:00,SystemResetWarning,0823.8,5.00,000.00,018.7,017.5,000.0,027.3,020.0,6.2,0000.0,0002.84,0001.21,0000.83
2024-01-09 05:54:00,SystemResetWarning,0823.8,5.00,000.00,018.7,017.4,000.0,027.2,020.0,6.1,0000.0,0002.78,0001.19,0000.83
2024-01-09 05:55:00,SystemResetWarning,0823.8,4.99,000.00,018.7,017.4,000.0,027.2,020.0,6.1,0000.0,0002.33,0001.11,0000.82
2024-01-09 05:56:00,SystemResetWarning,0823.8,5.00,000.00,018.7,017.3,000.0,027.2,020.0,6.0,0000.0,0002.20,0001.09,0000.82
2024-01-09 05:57:00,SystemResetWarning,0823.8,5.01,000.00,018.7,017.3,000.0,027.2,020.0,6.0,0000.0,0001.81,0001.09,0000.83
2024-01-09 05:58:00,SystemResetWarning,0823.8,5.01,000.00,018.7,017.7,000.0,027.2,020.3,6.0,0000.0,0001.72,0001.05,0000.83
2024-01-09 05:59:00,SystemResetWarning,0823.8,4.99,000.00,018.9,018.5,000.0,027.2,020.7,6.0,0000.0,0001.75,0001.07,0000.82
